[[{"header":{"parameterUnit":"m.s-1","parameterCategory":2,"la1":30.2991,"la2":30.254,"lo1":-89.0895,"lo2":-89.0444,"dy":0.0017,"dx":0.0017,"nx":28,"ny":28,"refTime":"2024-07-04T21:00:00:Z","depth":"0","parameterNumber":2,"parameterNumberName":"U-component_of_CURRENTS"},"data":[0,0,0,0,0,0,0,0,0,0,0,0,0,0,0,0,0,0,0,0,0,0,0,0,0,0,0,0,0,0,0,0,0,0,0,0,0,0,0,0,0,0,0,0,0,0,0,0,0,0,0,0,0,0,0,0,0,0,0.1547,0.1547,0,0.1513,0.1512,0.1512,0.1439,0.1438,0.1437,0.1436,0.1367,0.1366,0.1365,0,0,0,0,0,0,0,0,0,0,0,0,0,0.1541,0.1542,0.1547,0.1547,0.1547,0.1513,0.1512,0.1511,0.144,0.1438,0.1437,0.1435,0.1367,0.1366,0.1365,0,0,0,0,0,0,0,0,0,0,0,0,0,0.1526,0.1542,0.1547,0.1509,0.1506,0.1513,0.1512,0.1511,0.144,0.1438,0.1436,0.1435,0.1367,0.1366,0.1365,0.1392,0,0,0.1362,0.1361,0,0,0,0,0,0,0,0,0.1527,0.1526,0.1515,0.1512,0.1508,0.1482,0.1485,0.1471,0.144,0.1461,0.1436,0.1434,0.1406,0.1401,0.1394,0.1389,0.1386,0.1361,0.1361,0.136,0.136,0,0,0,0,0,0,0,0.1528,0.1527,0.153,0.1515,0.1511,0.1492,0.1487,0.1482,0.144,0.1459,0.1455,0.1457,0.1403,0.1395,0.1392,0.1385,0.1361,0.136,0.136,0.1359,0.1518,0.1523,0,0,0,0,0,0,0.1542,0.1528,0.1531,0.1529,0.1518,0.1494,0.1488,0.1489,0.1441,0.1433,0.1459,0.1454,0.1398,0.1393,0.1389,0.15,0.136,0.1359,0.1358,0.1513,0.1519,0.1525,0,0,0,0,0,0,0.1542,0.1543,0.1532,0.1531,0.1528,0.1496,0.1497,0.1489,0.1491,0.1441,0.1432,0.1469,0.1397,0.1391,0.1418,0.1493,0.1359,0.1358,0.1508,0.1515,0.1522,0.1669,0,0,0,0,0,0,0.1542,0.1543,0.1551,0.1532,0.1529,0.155,0.1499,0.149,0.1496,0.149,0.1448,0.1438,0.1395,0.1421,0.1417,0.1489,0.1357,0.1501,0.1511,0.152,0.1658,0.1681,0.17,0,0,0,0,0,0.1542,0.1558,0.1552,0.1552,0.1541,0.1552,0.155,0.1518,0.1499,0.151,0.1498,0.144,0.1478,0.1423,0.1418,0.1491,0.1497,0.1508,0.1519,0.1649,0.1676,0.17,0,0,0,0,0,0,0.1559,0.1552,0.1544,0.1558,0.1564,0.1542,0.1547,0.1538,0.1537,0.1531,0.1483,0.1475,0.1538,0.1504,0.1445,0.1574,0.1487,0.1497,0.1588,0.1613,0.1634,0.1663,0.1356,0,0,0,0,0,0.1571,0.1581,0.1577,0.1592,0.1594,0.1579,0.1582,0.1569,0.1565,0.1561,0.1541,0.1544,0.1582,0.1584,0.1597,0.1648,0.1716,0.1705,0.1726,0.1743,0.1771,0.198,0.2023,0.1561,0.1561,0.1561,0,0,0.158,0.1582,0.1586,0.1597,0.1592,0.1614,0.1575,0.159,0.1627,0.1557,0.1599,0.1611,0.1617,0.1686,0.1712,0.166,0.1914,0.1757,0.1772,0.179,0.1997,0.2042,0.2082,0.1569,0.1567,0.1566,0,0,0.1616,0.1609,0.1633,0.1643,0.1655,0.1649,0.1664,0.1663,0.1679,0.1723,0.1716,0.179,0.1787,0.1844,0.1865,0.2018,0.2025,0.2013,0.2128,0.2332,0.2372,0.2408,0.2562,0.261,0.2015,0.2015,0.2015,0,0.1633,0.1656,0.1645,0.1676,0.1688,0.1673,0.1708,0.1733,0.175,0.1803,0.1751,0.1892,0.188,0.204,0.2085,0.2068,0.2163,0.202,0.2361,0.2398,0.2432,0.2581,0.2633,0.2023,0.2023,0.2022,0.2021,0,0.1688,0.1707,0.1723,0.1752,0.1771,0.1796,0.1825,0.187,0.1882,0.1922,0.2072,0.2098,0.2187,0.2211,0.2177,0.2427,0.241,0.237,0.2293,0.2488,0.2632,0.2683,0.2036,0.2033,0.203,0.2028,0,0,0.1735,0.1754,0.1765,0.1778,0.1811,0.1828,0.1918,0.2005,0.2102,0.2151,0.2299,0.2399,0.2435,0.247,0.2485,0.2643,0.2953,0.2604,0.2611,0.275,0.3396,0.3295,0.334,0.2977,0.2986,0.2994,0.3402,0,0.1785,0.1827,0.1843,0.1897,0.1912,0.1945,0.203,0.2119,0.2203,0.2341,0.2452,0.2579,0.253,0.2594,0.2761,0.2893,0.3094,0.2845,0.3192,0.3202,0.3085,0.3399,0.3298,0.3646,0.3451,0.346,0.3466,0,0.185,0.1859,0.1902,0.1955,0.1973,0.2014,0.2156,0.2241,0.2444,0.2528,0.2703,0.2767,0.3004,0.2927,0.3325,0.3167,0.3316,0.3419,0.3437,0.3327,0.3199,0.3421,0.3746,0.3612,0.3544,0.3538,0.3532,0,0.1864,0.1917,0.1938,0.1951,0.2009,0.2067,0.2126,0.2303,0.2428,0.2669,0.2793,0.3045,0.3193,0.3431,0.3602,0.3504,0.4032,0.392,0.3997,0.3988,0.3964,0.3936,0.4194,0.4284,0.4283,0.4282,0.4281,0,0.1904,0.1932,0.194,0.1945,0.2027,0.2072,0.2229,0.2342,0.2558,0.2766,0.2892,0.3114,0.3336,0.3608,0.3746,0.4042,0.4175,0.411,0.4134,0.4007,0.398,0.3899,0.3798,0.4297,0.4294,0.4291,0.4288,0,0.1915,0.1924,0.1947,0.1989,0.2024,0.2081,0.2257,0.2408,0.2585,0.287,0.2954,0.3249,0.3578,0.3786,0.4186,0.4235,0.4396,0.4577,0.4376,0.4366,0.4198,0.4107,0.4238,0.4121,0.4735,0.4736,0.4736,0,0.1913,0.1914,0.1952,0.2007,0.2029,0.2132,0.2253,0.2421,0.2606,0.2975,0.3139,0.3473,0.3727,0.4211,0.4378,0.4652,0.449,0.4704,0.4492,0.4267,0.4187,0.394,0.3811,0.4542,0.4541,0.454,0.454,0,0.1898,0.1907,0.1932,0.2056,0.2158,0.2276,0.245,0.2566,0.2829,0.3038,0.3372,0.3569,0.3976,0.4191,0.4477,0.4619,0.4434,0.4686,0.4577,0.4187,0.3829,0.3696,0.4142,0.4531,0.4532,0.4533,0.4533,0.4534,0.1903,0.1949,0.2026,0.2164,0.2279,0.2443,0.2532,0.2723,0.2955,0.3244,0.3458,0.3702,0.3997,0.4339,0.4433,0.4461,0.4383,0.4409,0.4368,0.4174,0.3907,0.4287,0.4586,0.4587,0.4588,0.4589,0.4589,0,0.1991,0.2066,0.2165,0.2343,0.2487,0.2527,0.2713,0.2789,0.3003,0.3239,0.3458,0.3733,0.3937,0.4103,0.4274,0.4205,0.3984,0.4117,0.3797,0.3723,0.4237,0.4065,0.4113,0.4113,0.4113,0.4114,0.4114,0.4114,0.205,0.22,0.2288,0.2545,0.264,0.2785,0.2854,0.2913,0.3034,0.3196,0.3322,0.3459,0.3738,0.4002,0.3996,0.3923,0.3632,0.3515,0.3441,0.3829,0.3851,0.3872,0.369,0.3659,0.3658,0.2799,0.2792,0.2788]},{"header":{"parameterUnit":"m.s-1","parameterCategory":2,"la1":30.2991,"la2":30.254,"lo1":-89.0895,"lo2":-89.0444,"dy":0.0017,"dx":0.0017,"nx":28,"ny":28,"refTime":"2024-07-04T21:00:00:Z","depth":"0","parameterNumber":3,"parameterNumberName":"V-component_of_CURRENTS"},"data":[0,0,0,0,0,0,0,0,0,0,0,0,0,0,0,0,0,0,0,0,0,0,0,0,0,0,0,0,0,0,0,0,0,0,0,0,0,0,0,0,0,0,0,0,0,0,0,0,0,0,0,0,0,0,0,0,0,0,-0.0239,-0.0239,0,-0.0216,-0.0216,-0.0216,-0.0216,-0.0216,-0.0216,-0.0216,-0.026,-0.0261,-0.0263,0,0,0,0,0,0,0,0,0,0,0,0,0,-0.0248,-0.0248,-0.024,-0.0239,-0.0238,-0.0216,-0.0216,-0.0216,-0.0216,-0.0216,-0.0216,-0.0217,-0.026,-0.0261,-0.0263,0,0,0,0,0,0,0,0,0,0,0,0,0,-0.0239,-0.0249,-0.024,-0.0234,-0.0233,-0.0216,-0.0216,-0.0216,-0.0216,-0.0216,-0.0216,-0.0217,-0.026,-0.0261,-0.0263,-0.0271,0,0,-0.0268,-0.0269,0,0,0,0,0,0,0,0,-0.024,-0.0239,-0.0235,-0.0234,-0.0233,-0.0217,-0.0234,-0.0236,-0.0216,-0.0226,-0.0216,-0.0217,-0.025,-0.0253,-0.0251,-0.0273,-0.0275,-0.0268,-0.0269,-0.027,-0.027,0,0,0,0,0,0,0,-0.024,-0.024,-0.0233,-0.0235,-0.0233,-0.022,-0.0219,-0.0235,-0.0241,-0.0225,-0.0224,-0.0217,-0.0251,-0.0249,-0.0252,-0.0275,-0.0268,-0.0269,-0.027,-0.0271,-0.0281,-0.028,0,0,0,0,0,0,-0.024,-0.0241,-0.0234,-0.0232,-0.0234,-0.0219,-0.0219,-0.0224,-0.0239,-0.024,-0.0217,-0.0217,-0.0246,-0.025,-0.0254,-0.0228,-0.027,-0.0271,-0.0272,-0.0281,-0.0281,-0.028,0,0,0,0,0,0,-0.024,-0.024,-0.0234,-0.0233,-0.0231,-0.0219,-0.0225,-0.0224,-0.0221,-0.0232,-0.0235,-0.0215,-0.0246,-0.0251,-0.0266,-0.0232,-0.0272,-0.0273,-0.0282,-0.0281,-0.028,-0.0201,0,0,0,0,0,0,-0.0241,-0.0241,-0.0248,-0.0233,-0.0231,-0.0228,-0.0224,-0.0223,-0.0215,-0.0215,-0.0232,-0.0236,-0.0247,-0.0264,-0.0268,-0.0234,-0.0275,-0.0283,-0.0282,-0.028,-0.0204,-0.0197,-0.0191,0,0,0,0,0,-0.0241,-0.0263,-0.0249,-0.0248,-0.0241,-0.0228,-0.0226,-0.0219,-0.0215,-0.0217,-0.0224,-0.0235,-0.0257,-0.0265,-0.027,-0.0236,-0.0284,-0.0282,-0.0281,-0.0207,-0.0199,-0.0191,0,0,0,0,0,0,-0.0278,-0.0264,-0.0249,-0.0266,-0.0243,-0.0227,-0.0238,-0.0217,-0.0223,-0.0229,-0.0236,-0.0241,-0.0238,-0.0256,-0.0264,-0.0236,-0.0268,-0.0267,-0.0211,-0.0203,-0.0196,-0.0109,-0.0276,0,0,0,0,0,-0.0285,-0.0299,-0.0267,-0.0282,-0.0275,-0.0251,-0.0246,-0.0231,-0.0229,-0.0231,-0.0235,-0.0241,-0.0235,-0.0235,-0.0247,-0.0239,-0.02,-0.0218,-0.0211,-0.0205,-0.0138,-0.005,-0.0027,-0.0274,-0.0274,-0.0274,0,0,-0.0306,-0.0298,-0.0307,-0.029,-0.0281,-0.0263,-0.0251,-0.0246,-0.0209,-0.0237,-0.0218,-0.0228,-0.0231,-0.0216,-0.0215,-0.0225,-0.0128,-0.0203,-0.0198,-0.0132,-0.0045,-0.0021,0.0002,-0.0273,-0.0273,-0.0274,0,0,-0.0344,-0.0345,-0.0358,-0.0339,-0.0314,-0.0287,-0.028,-0.0254,-0.0225,-0.0209,-0.0204,-0.0173,-0.0205,-0.0157,-0.0146,-0.0107,-0.0102,-0.0139,-0.0023,0.006,0.0083,0.0104,0.0137,0.016,-0.0127,-0.0127,-0.0127,0,-0.0361,-0.0364,-0.0359,-0.0355,-0.032,-0.0294,-0.0264,-0.0239,-0.0213,-0.0134,-0.0203,-0.0118,-0.0154,-0.0035,-0.0035,-0.0082,-0.0057,-0.0055,0.0075,0.0097,0.0117,0.0146,0.0171,-0.0123,-0.0124,-0.0124,-0.0124,0,-0.0399,-0.0386,-0.0397,-0.0367,-0.0333,-0.0314,-0.0253,-0.0195,-0.0162,-0.01,0.0009,-0.0017,0.0071,0.0035,0.0001,0.0143,0.0104,0.0067,0.0066,0.0148,0.0171,0.0196,-0.0117,-0.0119,-0.012,-0.0121,0,0,-0.0449,-0.0421,-0.0421,-0.0354,-0.0322,-0.0268,-0.0197,-0.0058,0.0093,0.0077,0.0263,0.0242,0.0286,0.0305,0.0284,0.0335,0.0441,0.0261,0.0264,0.0316,0.0599,0.0495,0.0511,0.0423,0.0429,0.0434,0.0542,0,-0.0458,-0.0424,-0.0408,-0.0319,-0.0266,-0.0181,-0.0073,0.006,0.0168,0.0341,0.0378,0.0497,0.0371,0.0436,0.047,0.0465,0.0517,0.0414,0.0497,0.05,0.0417,0.0542,0.0487,0.0574,0.0566,0.057,0.0573,0,-0.0477,-0.0431,-0.0366,-0.0178,-0.0141,-0.0075,0.0206,0.0307,0.054,0.0641,0.0774,0.0797,0.0896,0.0755,0.0827,0.0762,0.071,0.0671,0.0674,0.059,0.0446,0.0499,0.0619,0.0312,0.0611,0.0608,0.0605,0,-0.0449,-0.0366,-0.0285,-0.0251,-0.0079,0.0039,0.0168,0.0415,0.0611,0.0853,0.1013,0.1108,0.1188,0.1148,0.1026,0.0953,0.1079,0.0969,0.0835,0.0824,0.0809,0.0787,0.0677,0.1057,0.1057,0.1057,0.1057,0,-0.0433,-0.0351,-0.0253,-0.0201,0.0021,0.0113,0.0407,0.0581,0.0864,0.1162,0.1175,0.1405,0.1292,0.1322,0.117,0.1087,0.1199,0.092,0.0882,0.0821,0.0801,0.0554,0.0421,0.1061,0.106,0.1059,0.1058,0,-0.0406,-0.0376,-0.023,-0.005,0.0034,0.0207,0.0547,0.0802,0.1016,0.1399,0.1482,0.1665,0.1694,0.1535,0.1488,0.1296,0.1056,0.114,0.1041,0.099,0.0528,0.0402,0.0394,0.029,0.1033,0.1032,0.103,0,-0.0384,-0.0334,-0.0123,0.0029,0.0119,0.0376,0.0611,0.0871,0.1155,0.1592,0.1802,0.1915,0.208,0.1911,0.1556,0.1291,0.1057,0.1064,0.0915,0.0552,0.0386,0.031,0.0217,0.0907,0.0905,0.0903,0.0902,0,-0.0296,-0.0241,-0.0094,0.0194,0.0431,0.0708,0.1035,0.1258,0.1624,0.1917,0.2326,0.2471,0.2286,0.2029,0.1588,0.1356,0.0844,0.1017,0.0715,0.0368,0.0221,0.0083,0.0732,0.0887,0.0888,0.089,0.089,0.0891,-0.0186,-0.0035,0.0178,0.0477,0.0732,0.1074,0.1332,0.1654,0.2071,0.2536,0.265,0.288,0.2403,0.1789,0.1438,0.0629,0.0719,0.0409,0.0315,0.0291,0.0116,0.0697,0.0745,0.0746,0.0746,0.0747,0.0747,0,0.004,0.0228,0.0489,0.0869,0.1176,0.1257,0.1682,0.1937,0.2386,0.2708,0.3011,0.2845,0.2251,0.1567,0.0534,0.0036,-0.0141,-0.0243,-0.0371,-0.041,0.0171,0.0077,-0.0106,-0.0105,-0.0105,-0.0105,-0.0105,-0.0104,0.0198,0.0522,0.068,0.1238,0.1476,0.1886,0.2117,0.242,0.2673,0.3007,0.3089,0.3113,0.2504,0.0826,-0.0381,-0.0656,-0.0981,-0.1019,-0.1154,-0.0837,-0.0785,-0.0736,-0.0861,-0.1237,-0.1238,-0.1708,-0.1714,-0.1718]}],[{"header":{"parameterUnit":"m.s-1","parameterCategory":2,"la1":30.2991,"la2":30.254,"lo1":-89.0895,"lo2":-89.0444,"dy":0.0017,"dx":0.0017,"nx":28,"ny":28,"refTime":"2024-07-04T21:00:00:Z","depth":"2","parameterNumber":2,"parameterNumberName":"U-component_of_CURRENTS"},"data":[0,0,0,0,0,0,0,0,0,0,0,0,0,0,0,0,0,0,0,0,0,0,0,0,0,0,0,0,0,0,0,0,0,0,0,0,0,0,0,0,0,0,0,0,0,0,0,0,0,0,0,0,0,0,0,0,0,0,0.1347,0.1348,0,0.1391,0.1391,0.1392,0.1398,0.1398,0.1398,0.1397,0.1416,0.1417,0.1418,0,0,0,0,0,0,0,0,0,0,0,0,0,0.1259,0.1261,0.1347,0.1348,0.1348,0.1391,0.1391,0.1392,0.1398,0.1398,0.1397,0.1397,0.1416,0.1417,0.1418,0,0,0,0,0,0,0,0,0,0,0,0,0,0.13,0.1261,0.1347,0.1357,0.1358,0.1391,0.1391,0.1392,0.1398,0.1398,0.1397,0.1397,0.1415,0.1417,0.1418,0.1438,0,0,0.1422,0.1423,0,0,0,0,0,0,0,0,0.1297,0.1303,0.1355,0.1356,0.1358,0.1388,0.1367,0.1406,0.1399,0.1383,0.1397,0.1396,0.1405,0.1407,0.1417,0.1439,0.144,0.1422,0.1423,0.1424,0.1424,0,0,0,0,0,0,0,0.1294,0.1301,0.1365,0.1355,0.1357,0.1355,0.136,0.1375,0.1396,0.1384,0.1385,0.139,0.1405,0.1416,0.1417,0.144,0.1422,0.1423,0.1424,0.1425,0.1528,0.1529,0,0,0,0,0,0,0.1291,0.1299,0.1363,0.1366,0.1325,0.1357,0.1363,0.1379,0.1397,0.1399,0.139,0.139,0.1414,0.1416,0.1418,0.1487,0.1423,0.1425,0.1425,0.1526,0.1528,0.153,0,0,0,0,0,0,0.1289,0.1296,0.1361,0.1332,0.134,0.1359,0.1378,0.138,0.1393,0.1402,0.1403,0.14,0.1413,0.1416,0.1446,0.1486,0.1425,0.1427,0.1523,0.1526,0.1529,0.1597,0,0,0,0,0,0,0.1286,0.1296,0.1311,0.1332,0.1342,0.139,0.1378,0.1382,0.1397,0.1397,0.141,0.1411,0.1413,0.1444,0.1447,0.1487,0.1428,0.1521,0.1525,0.1528,0.1592,0.1602,0.161,0,0,0,0,0,0.1283,0.1306,0.1312,0.132,0.1361,0.139,0.1396,0.1406,0.1398,0.1413,0.1425,0.1411,0.147,0.1447,0.145,0.1491,0.1519,0.1524,0.1528,0.1588,0.16,0.161,0,0,0,0,0,0,0.1276,0.131,0.1316,0.1349,0.1371,0.1392,0.1408,0.141,0.1431,0.1431,0.1431,0.1435,0.1477,0.1475,0.1449,0.1533,0.1494,0.15,0.1539,0.155,0.1559,0.1536,0.1429,0,0,0,0,0,0.1282,0.131,0.1336,0.1363,0.1375,0.1391,0.1405,0.1412,0.1431,0.1439,0.145,0.1469,0.1499,0.1515,0.1534,0.1577,0.1592,0.1607,0.1616,0.1624,0.1608,0.1692,0.1708,0.1545,0.1545,0.1544,0,0,0.1286,0.1309,0.1324,0.1364,0.1382,0.1407,0.1399,0.1424,0.1445,0.1438,0.1474,0.1496,0.1515,0.1568,0.1587,0.1571,0.1682,0.1629,0.1636,0.1615,0.1699,0.1715,0.1729,0.1548,0.1547,0.1547,0,0,0.1304,0.133,0.1357,0.1378,0.1409,0.1424,0.1431,0.1458,0.1471,0.1509,0.1516,0.1554,0.1595,0.1622,0.164,0.1706,0.1722,0.1728,0.1759,0.1843,0.1857,0.1869,0.1922,0.1939,0.1738,0.1738,0.1738,0,0.1304,0.1344,0.1368,0.1396,0.1413,0.1431,0.1454,0.1478,0.1511,0.153,0.1526,0.1612,0.1617,0.1692,0.1714,0.1724,0.1772,0.1717,0.1855,0.1867,0.1878,0.193,0.1947,0.1742,0.1741,0.1741,0.1741,0,0.1342,0.137,0.1387,0.143,0.1454,0.1479,0.1509,0.1538,0.1555,0.1579,0.1649,0.1679,0.1738,0.1752,0.1748,0.1845,0.1853,0.1854,0.1826,0.1899,0.1949,0.1965,0.1747,0.1746,0.1745,0.1744,0,0,0.1347,0.14,0.1407,0.1423,0.1471,0.1492,0.1536,0.1582,0.162,0.1665,0.1749,0.1776,0.1811,0.1832,0.186,0.1911,0.2026,0.192,0.1923,0.1968,0.2213,0.2156,0.2168,0.2074,0.2077,0.208,0.222,0,0.1365,0.1406,0.1438,0.1479,0.1498,0.1532,0.1574,0.1619,0.1666,0.1759,0.181,0.1897,0.1844,0.1908,0.1953,0.2041,0.2072,0.1986,0.2137,0.214,0.2078,0.2186,0.2017,0.2123,0.2236,0.2239,0.2241,0,0.1395,0.1414,0.1447,0.1495,0.1509,0.1547,0.1618,0.166,0.1776,0.1826,0.1921,0.1991,0.211,0.2055,0.2195,0.2162,0.217,0.2196,0.2204,0.2129,0.2114,0.2066,0.2149,0.2268,0.2266,0.2264,0.2262,0,0.1376,0.1427,0.1448,0.1463,0.152,0.1554,0.1598,0.1681,0.174,0.1903,0.2,0.2127,0.2256,0.2303,0.2349,0.2311,0.2495,0.2458,0.2388,0.2384,0.2252,0.223,0.2501,0.2501,0.25,0.25,0.2499,0,0.1381,0.1399,0.1444,0.1454,0.1491,0.1548,0.162,0.1676,0.1826,0.1925,0.2051,0.2177,0.2327,0.2451,0.2438,0.2492,0.2574,0.2406,0.2429,0.2271,0.2251,0.2372,0.2355,0.2505,0.2504,0.2503,0.2502,0,0.135,0.1383,0.1402,0.1458,0.1479,0.1509,0.1627,0.1687,0.1829,0.1992,0.2072,0.2296,0.2452,0.2542,0.2665,0.2621,0.2658,0.2618,0.241,0.2403,0.2464,0.2449,0.2599,0.2598,0.2598,0.2597,0.2597,0,0.1334,0.1336,0.138,0.1399,0.1427,0.1489,0.1535,0.1668,0.1753,0.2028,0.212,0.2357,0.2491,0.2675,0.2656,0.2674,0.2657,0.2488,0.2346,0.2473,0.248,0.2466,0.2452,0.2209,0.2205,0.2203,0.22,0,0.1273,0.1291,0.1298,0.1345,0.139,0.1448,0.1543,0.162,0.1801,0.197,0.22,0.2351,0.2521,0.253,0.2558,0.2503,0.249,0.2427,0.2679,0.2195,0.2113,0.2117,0.2115,0.2175,0.2177,0.2179,0.218,0.2182,0.1208,0.1208,0.1234,0.1285,0.1339,0.1423,0.1476,0.1607,0.1766,0.1978,0.2126,0.2274,0.2346,0.2328,0.2277,0.2227,0.2341,0.2227,0.2233,0.2243,0.2158,0.2078,0.2117,0.2119,0.2121,0.2122,0.2124,0,0.113,0.1158,0.1185,0.1247,0.1307,0.1371,0.1489,0.1546,0.1716,0.187,0.2024,0.1921,0.197,0.2025,0.1931,0.1925,0.1869,0.1838,0.1765,0.1793,0.1817,0.1706,0.1547,0.1545,0.1543,0.1542,0,0,0.1086,0.1093,0.1131,0.1209,0.1276,0.135,0.1423,0.1506,0.1615,0.1676,0.1728,0.1857,0.1996,0.1748,0.1722,0.1646,0.1698,0.1575,0.2044,0.1989,0.2011,0.2055,0.1917,0,0,0,0,0]},{"header":{"parameterUnit":"m.s-1","parameterCategory":2,"la1":30.2991,"la2":30.254,"lo1":-89.0895,"lo2":-89.0444,"dy":0.0017,"dx":0.0017,"nx":28,"ny":28,"refTime":"2024-07-04T21:00:00:Z","depth":"2","parameterNumber":3,"parameterNumberName":"V-component_of_CURRENTS"},"data":[0,0,0,0,0,0,0,0,0,0,0,0,0,0,0,0,0,0,0,0,0,0,0,0,0,0,0,0,0,0,0,0,0,0,0,0,0,0,0,0,0,0,0,0,0,0,0,0,0,0,0,0,0,0,0,0,0,0,-0.0728,-0.0729,0,-0.0803,-0.0804,-0.0804,-0.0857,-0.0858,-0.0859,-0.0859,-0.0884,-0.0884,-0.0884,0,0,0,0,0,0,0,0,0,0,0,0,0,-0.0631,-0.0632,-0.0728,-0.0729,-0.073,-0.0803,-0.0804,-0.0804,-0.0857,-0.0858,-0.0859,-0.086,-0.0884,-0.0884,-0.0884,0,0,0,0,0,0,0,0,0,0,0,0,0,-0.0684,-0.0633,-0.0727,-0.0767,-0.0771,-0.0803,-0.0804,-0.0805,-0.0857,-0.0858,-0.0859,-0.086,-0.0884,-0.0884,-0.0884,-0.0867,0,0,-0.0884,-0.0885,0,0,0,0,0,0,0,0,-0.0681,-0.0687,-0.076,-0.0764,-0.0769,-0.0823,-0.0779,-0.0824,-0.0857,-0.0822,-0.0859,-0.086,-0.0859,-0.0862,-0.0872,-0.0868,-0.0869,-0.0884,-0.0885,-0.0885,-0.0885,0,0,0,0,0,0,0,-0.0677,-0.0685,-0.0755,-0.0761,-0.0766,-0.0781,-0.0789,-0.0788,-0.0832,-0.0825,-0.083,-0.0841,-0.0862,-0.0872,-0.0873,-0.0869,-0.0884,-0.0885,-0.0885,-0.0885,-0.0867,-0.0866,0,0,0,0,0,0,-0.0671,-0.0681,-0.0753,-0.0758,-0.0729,-0.0782,-0.0791,-0.0803,-0.0834,-0.084,-0.084,-0.0843,-0.0871,-0.0872,-0.0874,-0.0872,-0.0885,-0.0885,-0.0885,-0.0868,-0.0867,-0.0866,0,0,0,0,0,0,-0.0669,-0.0677,-0.075,-0.0723,-0.0733,-0.0783,-0.0796,-0.0804,-0.0826,-0.0846,-0.0851,-0.0855,-0.0872,-0.0873,-0.0884,-0.0873,-0.0885,-0.0885,-0.0868,-0.0867,-0.0867,-0.0857,0,0,0,0,0,0,-0.0666,-0.0675,-0.0685,-0.0722,-0.0735,-0.0765,-0.0796,-0.0805,-0.0832,-0.0837,-0.0859,-0.0862,-0.0873,-0.0884,-0.0885,-0.0873,-0.0885,-0.0869,-0.0868,-0.0867,-0.0858,-0.0856,-0.0855,0,0,0,0,0,-0.0662,-0.0664,-0.0685,-0.0694,-0.0746,-0.0765,-0.0771,-0.0809,-0.0831,-0.0833,-0.0859,-0.0862,-0.0877,-0.0884,-0.0885,-0.0873,-0.0869,-0.0868,-0.0867,-0.0859,-0.0857,-0.0855,0,0,0,0,0,0,-0.0627,-0.0671,-0.0695,-0.0712,-0.0737,-0.0774,-0.0783,-0.0809,-0.0832,-0.0841,-0.0862,-0.0866,-0.087,-0.087,-0.0878,-0.0863,-0.087,-0.0869,-0.0864,-0.0862,-0.086,-0.0868,-0.0885,0,0,0,0,0,-0.0624,-0.0639,-0.068,-0.0693,-0.0705,-0.0746,-0.0762,-0.0786,-0.0811,-0.0824,-0.0843,-0.0856,-0.0861,-0.0864,-0.0868,-0.0861,-0.0879,-0.0851,-0.0849,-0.0847,-0.0853,-0.0865,-0.0865,-0.0862,-0.0862,-0.0862,0,0,-0.0616,-0.0642,-0.0652,-0.0687,-0.0711,-0.0718,-0.0757,-0.0777,-0.0787,-0.082,-0.0836,-0.0852,-0.0859,-0.0858,-0.0857,-0.0859,-0.086,-0.0846,-0.0844,-0.0851,-0.0863,-0.0864,-0.0864,-0.0861,-0.0861,-0.0862,0,0,-0.0593,-0.0627,-0.0629,-0.0645,-0.068,-0.0703,-0.0708,-0.0748,-0.077,-0.0785,-0.0813,-0.083,-0.0832,-0.0845,-0.0848,-0.0835,-0.0852,-0.0826,-0.0821,-0.0832,-0.0832,-0.0833,-0.0871,-0.0875,-0.0821,-0.0821,-0.0821,0,-0.0583,-0.0598,-0.063,-0.0631,-0.0649,-0.0692,-0.0696,-0.0715,-0.0754,-0.0776,-0.0785,-0.0807,-0.0826,-0.0824,-0.0834,-0.0831,-0.085,-0.0831,-0.0831,-0.0832,-0.0833,-0.0871,-0.0876,-0.0821,-0.0821,-0.0821,-0.0821,0,-0.0558,-0.0575,-0.0574,-0.0595,-0.061,-0.0621,-0.0653,-0.0677,-0.071,-0.0736,-0.0751,-0.0771,-0.0781,-0.0789,-0.0817,-0.0824,-0.0841,-0.0831,-0.084,-0.0833,-0.0874,-0.0879,-0.082,-0.082,-0.082,-0.082,0,0,-0.0536,-0.0555,-0.0561,-0.057,-0.06,-0.061,-0.0626,-0.0662,-0.0678,-0.0701,-0.0669,-0.074,-0.0753,-0.0757,-0.0774,-0.0803,-0.0848,-0.0828,-0.0829,-0.0873,-0.0895,-0.0865,-0.0868,-0.0837,-0.0837,-0.0838,-0.0927,0,-0.0518,-0.0518,-0.0534,-0.0538,-0.0545,-0.0586,-0.0593,-0.0627,-0.066,-0.0627,-0.0644,-0.061,-0.0732,-0.0698,-0.0762,-0.0777,-0.0859,-0.0827,-0.089,-0.0893,-0.0871,-0.0871,-0.0795,-0.0864,-0.0932,-0.0933,-0.0934,0,-0.0501,-0.0507,-0.051,-0.0527,-0.0533,-0.0533,-0.0575,-0.0583,-0.057,-0.0577,-0.0573,-0.0539,-0.054,-0.0609,-0.0739,-0.0708,-0.0837,-0.089,-0.0893,-0.0871,-0.087,-0.0878,-0.0871,-0.0943,-0.0942,-0.0942,-0.0941,0,-0.049,-0.0496,-0.0505,-0.0511,-0.0526,-0.0538,-0.0543,-0.0578,-0.0549,-0.0495,-0.0422,-0.0455,-0.0356,-0.0526,-0.067,-0.069,-0.0795,-0.0817,-0.0945,-0.0945,-0.0895,-0.0889,-0.0975,-0.0974,-0.0974,-0.0974,-0.0974,0,-0.0474,-0.0484,-0.0498,-0.0502,-0.0493,-0.0514,-0.0492,-0.0521,-0.0443,-0.0361,-0.037,-0.0298,-0.0329,-0.0372,-0.0599,-0.0771,-0.0761,-0.0952,-0.0959,-0.089,-0.0883,-0.0957,-0.0954,-0.0977,-0.0977,-0.0976,-0.0975,0,-0.0465,-0.0476,-0.0487,-0.05,-0.0486,-0.0484,-0.0404,-0.0368,-0.0346,-0.0198,-0.0125,-0.0087,-0.0168,-0.0284,-0.0465,-0.0621,-0.082,-0.0925,-0.0846,-0.0842,-0.0992,-0.0987,-0.1032,-0.1031,-0.1031,-0.1031,-0.103,0,-0.046,-0.047,-0.0476,-0.0442,-0.044,-0.0402,-0.0346,-0.0313,-0.0237,-0.0132,-0.002,0.0014,0.002,-0.0215,-0.0447,-0.0739,-0.0859,-0.0868,-0.0904,-0.0992,-0.0995,-0.0991,-0.0987,-0.0854,-0.0852,-0.0851,-0.085,0,-0.0462,-0.0479,-0.0478,-0.0393,-0.0337,-0.0245,-0.0154,-0.0055,0.002,0.0142,0.0245,0.0279,0.0087,-0.0088,-0.0407,-0.0639,-0.0785,-0.0848,-0.0935,-0.0836,-0.0827,-0.0829,-0.083,-0.0837,-0.0838,-0.0839,-0.084,-0.084,-0.0472,-0.0455,-0.0424,-0.0327,-0.0235,-0.0065,0.0058,0.0184,0.036,0.055,0.0464,0.05,0.0251,-0.0098,-0.0413,-0.0699,-0.0754,-0.0852,-0.0856,-0.0861,-0.0809,-0.0797,-0.0796,-0.0797,-0.0797,-0.0798,-0.0799,0,-0.0457,-0.0404,-0.0325,-0.019,-0.0026,0.0011,0.0222,0.0371,0.0614,0.0698,0.0784,0.0576,0.0341,-0.0006,-0.0394,-0.0649,-0.0675,-0.0738,-0.0717,-0.0727,-0.0737,-0.0679,-0.0632,-0.0632,-0.0632,-0.0632,0,0,-0.0449,-0.0359,-0.0283,-0.0001,0.0128,0.0376,0.0527,0.0717,0.0834,0.0954,0.0961,0.0861,0.0453,0.0206,-0.0161,-0.038,-0.0485,-0.0419,-0.0526,-0.0466,-0.0472,-0.0778,-0.0697,0,0,0,0,0]}],[{"header":{"parameterUnit":"m.s-1","parameterCategory":2,"la1":30.2991,"la2":30.254,"lo1":-89.0895,"lo2":-89.0444,"dy":0.0017,"dx":0.0017,"nx":28,"ny":28,"refTime":"2024-07-04T21:00:00:Z","depth":"4","parameterNumber":2,"parameterNumberName":"U-component_of_CURRENTS"},"data":[0,0,0,0,0,0,0,0,0,0,0,0,0,0,0,0,0,0,0,0,0,0,0,0,0,0,0,0,0,0,0,0,0,0,0,0,0,0,0,0,0,0,0,0,0,0,0,0,0,0,0,0,0,0,0,0,0,0,0.051,0.051,0,0.056,0.056,0.0561,0.0641,0.0643,0.0644,0.0646,0.0783,0.0785,0.0787,0,0,0,0,0,0,0,0,0,0,0,0,0,0.0456,0.0457,0.051,0.051,0.0511,0.056,0.056,0.0561,0.0641,0.0643,0.0645,0.0647,0.0782,0.0784,0.0787,0,0,0,0,0,0,0,0,0,0,0,0,0,0.0488,0.0457,0.0509,0.0559,0.0564,0.056,0.056,0.0561,0.064,0.0643,0.0645,0.0648,0.0781,0.0784,0.0787,0.0757,0,0,0.0797,0.0798,0,0,0,0,0,0,0,0,0.0486,0.049,0.0551,0.0555,0.0561,0.0599,0.0592,0.0632,0.064,0.0609,0.0646,0.0649,0.0729,0.0736,0.0736,0.0763,0.0769,0.0797,0.0799,0.08,0.0801,0,0,0,0,0,0,0,0.0484,0.0488,0.0527,0.0551,0.0558,0.0569,0.0576,0.0599,0.0654,0.0612,0.0618,0.0626,0.0732,0.0732,0.074,0.0771,0.0797,0.08,0.0802,0.0803,0.0936,0.0937,0,0,0,0,0,0,0.0481,0.0486,0.0526,0.0529,0.0531,0.0568,0.0576,0.0582,0.0652,0.0665,0.0624,0.063,0.0726,0.0736,0.0745,0.0852,0.08,0.0803,0.0805,0.0934,0.0936,0.0938,0,0,0,0,0,0,0.0479,0.0483,0.0524,0.0511,0.0517,0.0567,0.0573,0.0582,0.0645,0.0661,0.0676,0.0686,0.0728,0.0741,0.083,0.0853,0.0805,0.0808,0.0932,0.0935,0.0937,0.0976,0,0,0,0,0,0,0.0477,0.0482,0.0491,0.051,0.0518,0.0544,0.0571,0.0581,0.0643,0.0653,0.0717,0.0729,0.0731,0.0826,0.0833,0.0856,0.081,0.093,0.0933,0.0936,0.0973,0.098,0.0986,0,0,0,0,0,0.0475,0.047,0.0491,0.0496,0.0526,0.0545,0.055,0.0592,0.0645,0.0662,0.0734,0.073,0.085,0.083,0.0839,0.0863,0.0929,0.0932,0.0936,0.097,0.0979,0.0986,0,0,0,0,0,0,0.0448,0.0478,0.0502,0.0507,0.0537,0.056,0.0574,0.0624,0.0691,0.0719,0.0761,0.0776,0.0858,0.0861,0.0839,0.0911,0.0884,0.0889,0.0907,0.0915,0.0921,0.0926,0.0813,0,0,0,0,0,0.0445,0.0456,0.0488,0.0496,0.0511,0.056,0.0581,0.0616,0.0671,0.0705,0.0759,0.0815,0.0865,0.0897,0.0928,0.0973,0.0975,0.0992,0.0998,0.1003,0.1014,0.104,0.1049,0.095,0.095,0.095,0,0,0.0436,0.0456,0.0463,0.0493,0.0518,0.0551,0.0579,0.0618,0.0664,0.0707,0.08,0.0847,0.0887,0.0939,0.0973,0.0953,0.1034,0.1008,0.1012,0.102,0.1045,0.1054,0.1063,0.0952,0.0952,0.0952,0,0,0.0428,0.0445,0.0459,0.0488,0.0535,0.0559,0.059,0.0647,0.069,0.0768,0.0822,0.0896,0.0961,0.0993,0.1019,0.1081,0.1073,0.1092,0.1123,0.1148,0.1156,0.1163,0.1178,0.1186,0.1088,0.1088,0.1088,0,0.0422,0.0449,0.0466,0.0496,0.053,0.0579,0.0621,0.0654,0.0743,0.0793,0.0804,0.0947,0.0979,0.1063,0.1088,0.1094,0.1109,0.1089,0.1155,0.1162,0.1169,0.1182,0.119,0.109,0.109,0.109,0.1089,0,0.0434,0.0467,0.0477,0.0537,0.0569,0.0605,0.0657,0.071,0.0776,0.0831,0.0938,0.0981,0.1073,0.1084,0.111,0.1183,0.1179,0.1164,0.1131,0.1181,0.1192,0.12,0.1093,0.1093,0.1092,0.1091,0,0,0.0401,0.0474,0.0483,0.0525,0.0601,0.0625,0.0695,0.0775,0.0848,0.0914,0.1007,0.1088,0.1139,0.1172,0.1206,0.1223,0.1282,0.1223,0.1223,0.123,0.1343,0.1277,0.1279,0.1284,0.1286,0.1287,0.133,0,0.0419,0.0477,0.0516,0.0588,0.0627,0.0689,0.0753,0.0833,0.0903,0.0993,0.1051,0.1154,0.1163,0.1223,0.1246,0.1287,0.1306,0.1271,0.13,0.1301,0.123,0.1287,0.1292,0.1336,0.1338,0.1339,0.134,0,0.0428,0.0471,0.0536,0.0631,0.0656,0.0713,0.0826,0.0891,0.1012,0.1072,0.1171,0.1232,0.1321,0.1293,0.1372,0.1357,0.1365,0.1363,0.1365,0.1296,0.125,0.1278,0.1354,0.1353,0.1352,0.1351,0.135,0,0.0399,0.0488,0.054,0.0573,0.068,0.0737,0.0816,0.0936,0.1012,0.1145,0.1215,0.1314,0.1381,0.1406,0.1435,0.1421,0.1478,0.145,0.139,0.1384,0.141,0.1402,0.1486,0.1486,0.1485,0.1485,0.1485,0,0.04,0.0445,0.0538,0.0569,0.0661,0.0743,0.0856,0.0944,0.1078,0.1173,0.1275,0.1345,0.1415,0.146,0.146,0.1457,0.1506,0.1412,0.1398,0.1426,0.1419,0.1415,0.1407,0.1487,0.1487,0.1486,0.1486,0,0.036,0.0417,0.0479,0.0596,0.0649,0.0717,0.0892,0.0959,0.1102,0.1219,0.1275,0.1403,0.1468,0.1501,0.1537,0.1493,0.1487,0.1466,0.1502,0.1487,0.1369,0.1362,0.1412,0.1411,0.1409,0.1408,0.1407,0,0.0345,0.0367,0.0484,0.0536,0.06,0.0722,0.0802,0.0962,0.1032,0.1236,0.1271,0.1403,0.1466,0.1465,0.1499,0.1496,0.1471,0.1458,0.141,0.1384,0.1366,0.1361,0.1357,0.1404,0.1404,0.1403,0.1403,0,0.0309,0.0342,0.0391,0.0505,0.0591,0.0676,0.0808,0.0866,0.1033,0.1156,0.1266,0.1334,0.1395,0.1425,0.1436,0.1423,0.1464,0.1442,0.1444,0.1399,0.1374,0.1357,0.1354,0.1398,0.1399,0.1399,0.1399,0,0.0275,0.0296,0.0368,0.0467,0.0559,0.0626,0.0703,0.0805,0.0907,0.1125,0.1149,0.1279,0.1379,0.1388,0.1393,0.1389,0.1366,0.1312,0.1321,0.1327,0.1279,0.1234,0.1217,0,0,0,0,0,0.0249,0.0276,0.0343,0.0441,0.0521,0.0587,0.0699,0.0765,0.0919,0.0968,0.1073,0.1133,0.1209,0.1268,0.1245,0.1336,0.1349,0.1303,0.1284,0.1368,0.1375,0.1325,0,0,0,0,0,0,0.0229,0.0282,0.0317,0.0396,0.0461,0.0545,0.0609,0.0705,0.0746,0.0905,0.0943,0.1067,0.1134,0.1211,0.1226,0.1241,0.1207,0.1381,0.1379,0.1365,0.137,0.1375,0.1327,0,0,0,0,0]},{"header":{"parameterUnit":"m.s-1","parameterCategory":2,"la1":30.2991,"la2":30.254,"lo1":-89.0895,"lo2":-89.0444,"dy":0.0017,"dx":0.0017,"nx":28,"ny":28,"refTime":"2024-07-04T21:00:00:Z","depth":"4","parameterNumber":3,"parameterNumberName":"V-component_of_CURRENTS"},"data":[0,0,0,0,0,0,0,0,0,0,0,0,0,0,0,0,0,0,0,0,0,0,0,0,0,0,0,0,0,0,0,0,0,0,0,0,0,0,0,0,0,0,0,0,0,0,0,0,0,0,0,0,0,0,0,0,0,0,0.0275,0.0275,0,0.0245,0.0244,0.0244,0.0213,0.0213,0.0213,0.0213,0.012,0.0118,0.0115,0,0,0,0,0,0,0,0,0,0,0,0,0,0.0204,0.0206,0.0275,0.0275,0.0275,0.0245,0.0244,0.0244,0.0213,0.0213,0.0213,0.0213,0.0121,0.0118,0.0115,0,0,0,0,0,0,0,0,0,0,0,0,0,0.0208,0.0206,0.0275,0.0258,0.0256,0.0245,0.0244,0.0244,0.0213,0.0213,0.0213,0.0213,0.0121,0.0118,0.0115,0.0098,0,0,0.0104,0.0102,0,0,0,0,0,0,0,0,0.0208,0.021,0.0261,0.0259,0.0257,0.0235,0.0185,0.0193,0.0213,0.0227,0.0213,0.0213,0.0155,0.0148,0.014,0.0093,0.0089,0.0104,0.0102,0.01,0.0099,0,0,0,0,0,0,0,0.0208,0.0211,0.026,0.0261,0.0259,0.0217,0.0218,0.0186,0.0189,0.0225,0.0224,0.0225,0.0153,0.0144,0.0138,0.0088,0.0104,0.0101,0.0098,0.0097,-0.0046,-0.0048,0,0,0,0,0,0,0.0223,0.0211,0.0261,0.026,0.0235,0.0219,0.022,0.024,0.0191,0.0184,0.0225,0.0224,0.015,0.0142,0.0134,0.0092,0.01,0.0097,0.0095,-0.0045,-0.0047,-0.0049,0,0,0,0,0,0,0.0222,0.0229,0.0262,0.0235,0.0237,0.0222,0.0244,0.024,0.0232,0.0192,0.0183,0.0222,0.0149,0.0139,0.0091,0.0089,0.0095,0.0092,-0.0043,-0.0045,-0.0048,0.0021,0,0,0,0,0,0,0.0221,0.0229,0.0247,0.0238,0.024,0.0259,0.0244,0.0239,0.0234,0.0232,0.0186,0.0177,0.0148,0.0096,0.0087,0.0085,0.0089,-0.0041,-0.0044,-0.0047,0.0021,0.0021,0.0021,0,0,0,0,0,0.0218,0.0247,0.0248,0.0254,0.0266,0.026,0.0257,0.0242,0.0234,0.0233,0.0189,0.0179,0.0069,0.0092,0.0082,0.0079,-0.0039,-0.0043,-0.0047,0.0021,0.0021,0.0021,0,0,0,0,0,0,0.0228,0.0247,0.0247,0.0282,0.0273,0.0256,0.0257,0.0245,0.0212,0.0206,0.0164,0.0152,0.0102,0.0073,0.01,0.002,0.001,0.0004,0.0064,0.0064,0.0064,0.0082,0.0086,0,0,0,0,0,0.024,0.0266,0.0266,0.0292,0.0291,0.0274,0.027,0.0259,0.0231,0.0217,0.0183,0.0132,0.0078,0.006,0.0007,-0.0022,-0.0062,-0.0038,-0.0038,-0.0037,-0.0035,-0.0114,-0.012,-0.0061,-0.0061,-0.0061,0,0,0.0253,0.0265,0.0282,0.0295,0.0288,0.0295,0.027,0.0268,0.0268,0.0211,0.0191,0.013,0.0064,0.002,-0.0003,0.0002,-0.0074,-0.0042,-0.004,-0.0038,-0.0119,-0.0124,-0.0129,-0.0064,-0.0064,-0.0063,0,0,0.0288,0.0301,0.0331,0.0327,0.0323,0.0311,0.0313,0.0294,0.0278,0.0251,0.0194,0.0134,0.0075,0.0023,-0.0011,-0.0043,-0.0079,-0.0066,-0.0033,-0.011,-0.0114,-0.0119,-0.0157,-0.0166,-0.0053,-0.0053,-0.0053,0,0.03,0.0341,0.0334,0.0353,0.0352,0.0323,0.0339,0.0322,0.0286,0.0258,0.0252,0.012,0.0078,0.0003,-0.0007,-0.0037,-0.0081,-0.0016,-0.0105,-0.0111,-0.0117,-0.0156,-0.0166,-0.005,-0.0051,-0.0051,-0.0051,0,0.0353,0.0379,0.0391,0.041,0.0405,0.0411,0.0389,0.037,0.0345,0.0313,0.0233,0.016,0.0079,0.0055,0.0023,-0.0051,-0.0069,-0.01,-0.0092,-0.0118,-0.0158,-0.017,-0.0046,-0.0047,-0.0048,-0.0049,0,0,0.0395,0.0424,0.0428,0.0433,0.0432,0.0426,0.0424,0.0393,0.0367,0.0321,0.0271,0.0185,0.0127,0.0082,0.0019,-0.0033,-0.0096,-0.0072,-0.0078,-0.0085,-0.0248,-0.0209,-0.0218,-0.0147,-0.0149,-0.0151,-0.0251,0,0.0434,0.0473,0.0481,0.0502,0.051,0.0481,0.0475,0.0437,0.0392,0.0333,0.0247,0.0171,0.0143,0.009,0.0034,-0.0087,-0.0129,-0.0064,-0.0245,-0.0249,-0.0192,-0.0232,-0.0158,-0.026,-0.0263,-0.0265,-0.0266,0,0.048,0.0495,0.0527,0.0525,0.0526,0.0537,0.049,0.048,0.0396,0.0355,0.027,0.0186,0.0086,0.0068,-0.0106,-0.0069,-0.0146,-0.0216,-0.0223,-0.0219,-0.0234,-0.024,-0.0288,-0.0287,-0.0285,-0.0283,-0.0282,0,0.0485,0.0521,0.054,0.0543,0.0543,0.0544,0.054,0.0481,0.0456,0.0357,0.0314,0.0178,0.0103,-0.0023,-0.0151,-0.0149,-0.0329,-0.0351,-0.0379,-0.0376,-0.0407,-0.0401,-0.046,-0.0459,-0.0459,-0.0459,-0.0459,0,0.0505,0.0519,0.0547,0.0552,0.0563,0.0558,0.0546,0.0518,0.0465,0.0422,0.0322,0.0254,0.0072,-0.005,-0.0162,-0.0298,-0.0341,-0.0379,-0.0409,-0.0374,-0.0365,-0.0414,-0.0407,-0.0463,-0.0462,-0.0461,-0.0461,0,0.0494,0.0518,0.0537,0.0555,0.0566,0.0569,0.0579,0.0557,0.0517,0.0457,0.0424,0.0287,0.0128,-0.0028,-0.0239,-0.0303,-0.0444,-0.0473,-0.0399,-0.0422,-0.0436,-0.0425,-0.0536,-0.0536,-0.0535,-0.0535,-0.0535,0,0.0487,0.0497,0.0537,0.0553,0.0568,0.0582,0.0589,0.0579,0.056,0.0477,0.0443,0.0291,0.0186,-0.0066,-0.0225,-0.0429,-0.0444,-0.0503,-0.049,-0.043,-0.0449,-0.0438,-0.0428,-0.0535,-0.0535,-0.0534,-0.0534,0,0.0459,0.0479,0.0493,0.0533,0.056,0.0582,0.06,0.0595,0.0566,0.0537,0.0439,0.0301,0.0135,-0.0062,-0.0207,-0.0353,-0.0469,-0.0501,-0.0503,-0.0491,-0.043,-0.0446,-0.0436,-0.0533,-0.0534,-0.0534,-0.0534,0,0.0431,0.0439,0.0466,0.0494,0.0537,0.0565,0.0583,0.057,0.0556,0.049,0.0456,0.0285,0.0182,-0.0021,-0.0164,-0.0297,-0.0334,-0.0367,-0.0377,-0.0379,-0.0297,-0.0194,-0.0257,0,0,0,0,0,0.039,0.0395,0.0424,0.0459,0.0505,0.053,0.0572,0.0585,0.0576,0.0515,0.049,0.0341,0.0122,0.0021,-0.0109,-0.0167,-0.036,-0.0321,-0.0404,-0.0528,-0.0529,-0.0455,0,0,0,0,0,0,0.0362,0.0382,0.0401,0.042,0.0442,0.0488,0.052,0.0525,0.0497,0.0476,0.036,0.0313,0.0098,0.0183,-0.0117,-0.0158,-0.0223,-0.0422,-0.0424,-0.0528,-0.0529,-0.0529,-0.0454,0,0,0,0,0]}]]